User: anonymous   Login
Location: Mount Kobau Star Party
(49.1167°N, 119.7333°W)
Time: 12:45:21
(UTC-07:00)
Language:

TSX-5 - Orbit

View from above orbital plane
View from above orbital plane
View from above satellite
View from above satellite

Ground track
Ground track

The orbit data is extracted from the following two-line orbital elements,

1 26374U 00030A   15209.57618503  .00002026  00000-0  18141-3 0  9995
2 26374 068.9341 298.6685 0670845 335.4218 110.6646 14.00160270759371
Epoch (UTC): 28 July 2015 13:49:42
Eccentricity: 0.0670845
inclination: 68.9341°
perigee height: 405 km
apogee height: 1381 km
right ascension of ascending node: 298.6685°
argument of perigee: 335.4218°
revolutions per day: 14.00160270
mean anomaly at epoch: 110.6646°
orbit number at epoch: 75937

The dashed part of the orbit path shows where the satellite is in the earth's shadow,  

DLR